Shreveport, LA

1:43 PM CST on December 10, 2016 (GMT -0600)
Shreveport Regional

Weather History for KSHV - May, 2013

Change the Weather History Date:

Friday, May 31, 2013

  Actual Average Record
Temperature  
Mean Temperature 84 °F 77 °F  
Max Temperature 92 °F 87 °F 102 °F (1998)
Min Temperature 76 °F 67 °F 47 °F (1984)
Degree Days  
Heating Degree Days 0 0  
Month to date heating degree days 38 5  
Since 1 July heating degree days 2081 2226  
Cooling Degree Days 19 12  
Month to date cooling degree days 268 263  
Year to date cooling degree days 387 398  
Growing Degree Days 33 (Base 50)    
Moisture  
Dew Point 73 °F    
Average Humidity 72    
Maximum Humidity 87    
Minimum Humidity 56    
Precipitation  
Precipitation 0.00 in 0.15 in 4.41 in (1967)
Month to date precipitation 2.65 4.93  
Year to date precipitation 16.85 22.21  
Snow  
Snow 0.00 in - - ()
Month to date snowfall 0.0  
Since 1 July snowfall 0.1  
Snow Depth 0.00 in    
Sea Level Pressure  
Sea Level Pressure 29.86 in    
Wind  
Wind Speed 12 mph (South)    
Max Wind Speed 25 mph    
Max Gust Speed 29 mph    
Visibility 10 miles    
Events      
T = Trace of Precipitation, MM = Missing Value Source: NWS Daily Summary

Daily Weather History Graph

Daily Weather History Graph

Search for Another Location

Airport or City:

Trip Planner

Search our weather history database for the weather conditions in past years. The results will help you decide how hot, cold, wet, or windy it might be!

Date:

Astronomy

May. 31, 2013 Rise Set
Actual Time 6:09 AM CDT 8:17 PM CDT
Civil Twilight 5:41 AM CDT 8:45 PM CDT
Nautical Twilight 5:07 AM CDT 9:19 PM CDT
Astronomical Twilight 4:30 AM CDT 9:56 PM CDT
Moon 1:08 AM CDT (5/31) 1:07 PM CDT (5/31)
Length of Visible Light 15h 04m
Length of Day
14h 08m
Waning Gibbous, 51% of the Moon is Illuminated
May 31
Waning Gibbous
May 31
Last Quarter
Jun 8
New
Jun 16
First Quarter
Jun 23
Full

Hourly Weather History & Observations

Time (CDT) Temp. Heat Index Dew Point Humidity Pressure Visibility Wind Dir Wind Speed Gust Speed Precip Events Conditions
12:56 AM 78.1 °F - 71.1 °F 79% 29.86 in 10.0 mi South 11.5 mph - N/A   Clear
1:56 AM 77.0 °F - 72.0 °F 84% 29.84 in 10.0 mi South 10.4 mph - N/A   Partly Cloudy
2:18 AM 77.0 °F - 71.6 °F 83% 29.84 in 10.0 mi South 8.1 mph - N/A   Mostly Cloudy
2:56 AM 77.0 °F - 72.0 °F 84% 29.85 in 10.0 mi South 6.9 mph 20.7 mph N/A   Overcast
3:56 AM 78.1 °F - 71.1 °F 79% 29.87 in 10.0 mi South 11.5 mph - N/A   Overcast
4:21 AM 78.8 °F - 71.6 °F 78% 29.89 in 10.0 mi SSE 8.1 mph - N/A   Overcast
4:31 AM 77.0 °F - 71.6 °F 83% 29.89 in 10.0 mi South 9.2 mph - N/A   Overcast
4:56 AM 77.0 °F - 72.0 °F 84% 29.88 in 10.0 mi SSE 8.1 mph - N/A   Overcast
5:08 AM 77.0 °F - 71.6 °F 83% 29.89 in 10.0 mi SSE 10.4 mph - N/A   Overcast
5:56 AM 77.0 °F - 72.0 °F 84% 29.89 in 10.0 mi SSE 6.9 mph - N/A   Overcast
6:56 AM 75.9 °F - 72.0 °F 87% 29.90 in 10.0 mi SE 8.1 mph - N/A   Partly Cloudy
7:15 AM 77.0 °F - 71.6 °F 83% 29.91 in 10.0 mi SE 8.1 mph - N/A   Mostly Cloudy
7:56 AM 78.1 °F - 73.0 °F 84% 29.90 in 10.0 mi SSE 13.8 mph - N/A   Overcast
8:07 AM 78.8 °F - 73.4 °F 83% 29.91 in 10.0 mi SSE 12.7 mph 19.6 mph N/A   Mostly Cloudy
8:48 AM 80.6 °F 85.4 °F 73.4 °F 79% 29.90 in 10.0 mi SSE 13.8 mph 19.6 mph N/A   Mostly Cloudy
8:56 AM 81.0 °F 86.2 °F 73.9 °F 79% 29.89 in 10.0 mi SSE 11.5 mph - N/A   Mostly Cloudy
9:56 AM 82.9 °F 89.4 °F 73.9 °F 74% 29.88 in 10.0 mi South 12.7 mph - N/A   Overcast
10:56 AM 82.9 °F 89.4 °F 73.9 °F 74% 29.88 in 10.0 mi South 13.8 mph 20.7 mph N/A   Overcast
11:11 AM 84.2 °F 90.9 °F 73.4 °F 70% 29.88 in 10.0 mi South 11.5 mph - N/A   Mostly Cloudy
11:56 AM 86.0 °F 93.8 °F 73.9 °F 67% 29.87 in 10.0 mi SSW 12.7 mph - N/A   Overcast
12:56 PM 87.1 °F 95.4 °F 73.9 °F 65% 29.86 in 10.0 mi South 10.4 mph - N/A   Mostly Cloudy
1:56 PM 88.0 °F 95.6 °F 73.0 °F 61% 29.84 in 10.0 mi South 13.8 mph - N/A   Mostly Cloudy
2:56 PM 91.0 °F 100.4 °F 73.9 °F 57% 29.83 in 10.0 mi South 12.7 mph - N/A   Mostly Cloudy
3:56 PM 90.0 °F 99.0 °F 73.9 °F 59% 29.81 in 10.0 mi South 12.7 mph - N/A   Scattered Clouds
4:56 PM 89.1 °F 97.0 °F 73.0 °F 59% 29.80 in 10.0 mi South 13.8 mph 19.6 mph N/A   Scattered Clouds
5:56 PM 90.0 °F 97.9 °F 73.0 °F 57% 29.79 in 10.0 mi South 13.8 mph 21.9 mph N/A   Scattered Clouds
6:56 PM 88.0 °F 96.5 °F 73.9 °F 63% 29.78 in 10.0 mi South 17.3 mph 23.0 mph N/A   Scattered Clouds
7:56 PM 84.9 °F 91.4 °F 73.0 °F 67% 29.78 in 10.0 mi South 20.7 mph 25.3 mph N/A   Scattered Clouds
8:56 PM 82.0 °F 87.4 °F 73.0 °F 74% 29.77 in 10.0 mi South 19.6 mph 26.5 mph N/A   Partly Cloudy
9:56 PM 81.0 °F 85.8 °F 73.0 °F 77% 29.82 in 10.0 mi South 11.5 mph - N/A   Partly Cloudy
10:56 PM 79.0 °F - 73.0 °F 82% 29.84 in 10.0 mi South 12.7 mph 20.7 mph N/A   Partly Cloudy
11:56 PM 79.0 °F - 73.0 °F 82% 29.85 in 10.0 mi South 9.2 mph - N/A   Partly Cloudy